Weather History for Truckee-Tahoe, CA

Change the Weather History Date:

Monday, October 28, 2013

  Actual Average Record
Temperature  
Mean Temperature 30 °F -  
Max Temperature 33 °F 56 °F 86 °F (2002)
Min Temperature 28 °F 25 °F 10 °F (1971)
Degree Days  
Heating Degree Days 34    
Moisture  
Dew Point 29 °F    
Average Humidity 92    
Maximum Humidity 100    
Minimum Humidity 75    
Precipitation  
Precipitation 0.44 in - - ()
Sea Level Pressure  
Sea Level Pressure 29.66 in    
Wind  
Wind Speed 3 mph (NNW)    
Max Wind Speed 10 mph    
Max Gust Speed -    
Visibility 5 miles    
Events Snow    
Averages and records for this station are not official NWS values.
T = Trace of Precipitation, MM = Missing Value Source: NWS Daily Summary

Daily Weather History Graph

Daily Weather History Graph

Search for Another Location

Airport:

Trip Planner

Search our weather history database for the weather conditions in past years. The results will help you decide how hot, cold, wet, or windy it might be!

Date:

Astronomy

Oct. 28, 2013 Rise Set
Actual Time 7:24 AM PDT 6:03 PM PDT
Civil Twilight 6:56 AM PDT 6:31 PM PDT
Nautical Twilight 6:25 AM PDT 7:02 PM PDT
Astronomical Twilight 5:54 AM PDT 7:33 PM PDT
Moon 1:24 AM PDT (10/28) 2:46 PM PDT (10/28)
Length of Visible Light 11h 34m
Length of Day
10h 39m
Waning Crescent, 33% of the Moon is Illuminated
Oct 28
Waning Crescent
Nov 3
New
Nov 9
First Quarter
Nov 17
Full
Nov 25
Last Quarter

Hourly Weather History & Observations

Time (PDT) Temp. Windchill Dew Point Humidity Pressure Visibility Wind Dir Wind Speed Gust Speed Precip Events Conditions
12:15 AM 32.0 °F 27.5 °F 30.2 °F 93% 29.59 in 1.0 mi North 4.6 mph - 0.03 in Snow Light Snow
12:35 AM 32.0 °F 27.5 °F 30.2 °F 93% 29.58 in 1.2 mi NNW 4.6 mph - 0.03 in Snow Light Snow
12:55 AM 30.2 °F 25.4 °F 28.4 °F 93% 29.58 in 0.5 mi North 4.6 mph - 0.05 in Snow Snow
1:15 AM 30.2 °F 25.4 °F 28.4 °F 93% 29.57 in 0.5 mi NNE 4.6 mph - 0.02 in Snow Snow
1:35 AM 30.2 °F - 28.4 °F 93% 29.56 in 0.5 mi Calm Calm - 0.04 in Snow Snow
1:55 AM 30.2 °F 26.7 °F 28.4 °F 93% 29.56 in 0.5 mi NNW 3.5 mph - 0.07 in Snow Snow
2:15 AM 30.2 °F 25.4 °F 28.4 °F 93% 29.56 in 0.5 mi NNW 4.6 mph - 0.03 in Snow Snow
2:35 AM 30.2 °F - 28.4 °F 93% 29.56 in 0.5 mi Calm Calm - 0.08 in Snow Snow
2:55 AM 30.2 °F - 28.4 °F 93% 29.56 in 0.8 mi Calm Calm - 0.12 in Snow Light Snow
3:15 AM 30.2 °F - 28.4 °F 93% 29.56 in 1.0 mi Calm Calm - 0.03 in Snow Light Snow
3:35 AM 28.4 °F - 28.4 °F 100% 29.55 in 0.8 mi Calm Calm - 0.05 in Snow Light Snow
3:55 AM 28.4 °F - 28.4 °F 100% 29.55 in 1.5 mi Calm Calm - 0.08 in Snow Light Snow
4:15 AM 28.4 °F - 28.4 °F 100% 29.55 in 1.5 mi Calm Calm - 0.01 in Snow Light Snow
4:35 AM 28.4 °F - 28.4 °F 100% 29.56 in 0.8 mi Calm Calm - 0.04 in Snow Light Snow
4:55 AM 28.4 °F - 28.4 °F 100% 29.56 in 1.0 mi Calm Calm - 0.05 in Snow Light Snow
5:15 AM 28.4 °F - 28.4 °F 100% 29.56 in 0.8 mi Calm Calm - 0.01 in Snow Light Snow
5:35 AM 30.2 °F 25.4 °F 28.4 °F 93% 29.57 in 0.8 mi WNW 4.6 mph - 0.03 in Snow Light Snow
5:55 AM 30.2 °F 24.3 °F 28.4 °F 93% 29.58 in 1.2 mi NNW 5.8 mph - 0.05 in Snow Light Snow
6:15 AM 30.2 °F 21.9 °F 28.4 °F 93% 29.57 in 1.8 mi WSW 9.2 mph - 0.01 in Snow Light Snow
6:35 AM 30.2 °F 25.4 °F 28.4 °F 93% 29.58 in 5.0 mi WSW 4.6 mph - 0.02 in Snow Light Snow
7:50 AM 28.4 °F 24.6 °F 28.4 °F 100% 29.60 in 5.0 mi ESE 3.5 mph - N/A Snow Light Snow
8:50 AM 30.2 °F - 28.4 °F 93% 29.63 in 3.0 mi Calm Calm - N/A Snow Light Snow
9:50 AM 32.0 °F - 28.4 °F 87% 29.64 in 7.0 mi Calm Calm - N/A   Mostly Cloudy
10:50 AM 33.8 °F 25.8 °F 26.6 °F 75% 29.65 in 3.0 mi SW 10.4 mph - N/A Snow Light Snow
12:45 PM 33.8 °F - 26.6 °F 75% 29.67 in 4.0 mi Calm Calm - N/A Snow Light Snow
1:45 PM 32.0 °F - 28.4 °F 87% 29.67 in 3.0 mi Calm Calm - N/A Snow Light Snow
2:50 PM 32.0 °F 27.5 °F 30.2 °F 93% 29.68 in 4.0 mi North 4.6 mph - N/A Snow Light Snow
4:45 PM 32.0 °F 28.7 °F 30.2 °F 93% 29.70 in 4.0 mi NE 3.5 mph - N/A   Overcast
5:45 PM 32.0 °F - 28.4 °F 87% 29.71 in 3.0 mi Calm Calm - N/A Snow Light Snow
5:55 PM 32.0 °F 28.7 °F 28.4 °F 87% 29.71 in 9.0 mi NNE 3.5 mph - N/A   Overcast
6:15 PM 32.0 °F 26.4 °F 30.2 °F 93% 29.72 in 9.0 mi NNE 5.8 mph - N/A   Overcast
6:35 PM 32.0 °F 28.7 °F 30.2 °F 93% 29.73 in 10.0 mi NNW 3.5 mph - N/A   Overcast
6:55 PM 32.0 °F 28.7 °F 28.4 °F 87% 29.74 in 9.0 mi North 3.5 mph - N/A   Overcast
7:15 PM 32.0 °F - 30.2 °F 93% 29.74 in 6.0 mi Calm Calm - N/A Snow Light Snow
7:35 PM 32.0 °F 28.7 °F 28.4 °F 87% 29.75 in 7.0 mi SE 3.5 mph - N/A Snow Light Snow
7:55 PM 32.0 °F 27.5 °F 30.2 °F 93% 29.75 in 10.0 mi SE 4.6 mph - N/A   Overcast
8:15 PM 32.0 °F - 30.2 °F 93% 29.76 in 5.0 mi Calm Calm - N/A Snow Light Snow
8:35 PM 32.0 °F - 30.2 °F 93% 29.77 in 8.0 mi Calm Calm - N/A   Overcast
8:55 PM 32.0 °F - 30.2 °F 93% 29.77 in 10.0 mi Calm Calm - N/A   Overcast
9:15 PM 32.0 °F - 30.2 °F 93% 29.78 in 10.0 mi Calm Calm - N/A   Overcast
9:35 PM 32.0 °F - 30.2 °F 93% 29.78 in 10.0 mi Calm Calm - N/A   Mostly Cloudy
9:55 PM 32.0 °F - 28.4 °F 87% 29.78 in 10.0 mi Calm Calm - N/A   Mostly Cloudy
10:15 PM 32.0 °F 28.7 °F 30.2 °F 93% 29.79 in 10.0 mi NNE 3.5 mph - N/A   Mostly Cloudy
10:35 PM 32.0 °F 26.4 °F 28.4 °F 87% 29.80 in 10.0 mi NNW 5.8 mph - N/A   Mostly Cloudy
10:55 PM 32.0 °F 28.7 °F 28.4 °F 87% 29.80 in 10.0 mi WSW 3.5 mph - N/A   Mostly Cloudy
11:15 PM 30.2 °F - 28.4 °F 93% 29.81 in 10.0 mi Calm Calm - N/A   Mostly Cloudy
11:35 PM 32.0 °F - 30.2 °F 93% 29.81 in 10.0 mi Calm Calm - N/A   Overcast
11:55 PM 32.0 °F - 30.2 °F 93% 29.81 in 10.0 mi Calm Calm - N/A   Overcast